Showing default

ORBASTRO-PC-1, 58258

Orbit data source: Space-Track

ORBASTRO-PC-1, 58258 is a payload satellite owned by OrbAstro (UK) in SSO that was launched on Sat, 11 Nov 2023 UTC via an FALCON 9 launch vehicle from the Air Force Western Test Range (AFWTR). Payload-class satellites include a variety of spacecraft equipped with specific instruments for various scientific and technological missions. These include communications satellites like Starlink; space stations such as the ISS; scientific satellites like the Hubble; Earth observation satellites from companies like Planet Labs, Umbra, and HawkEye 360; GPS; miniature CubeSats for education and research; and military/defense satellites.

Loading next visibility...
Identifier
58258, 2023-174C
Orbit
SSO
Country
Flag of UKUK
Related business
Manufacturer
OrbAstro
Mission
Operational Commercial Technology
Bus & Motor
CUBESAT 6U, Unknown motor
Mass
~10 kg wet, ~10 kg dry
Launch date (UTC)
2023-11-11 (3 years ago)
Launch vehicle
FALCON 9
Launch site
Air Force Western Test Range (AFWTR)
Object type
Payload
Rocket body
Debris
Shape & HBR
Box + 2 Pan, 0.1 m
Radar Cross Section
0.080 m², Medium (>0.1 m² and < 1m²)

Expand to show TLE details & history
Last TLE update: 7 hours ago

TLE from 7 hours ago
0 ORBASTRO-PC-1
1 58258U 23174C   26176.20765113  .00029821  00000-0  54917-3 0  9993
2 58258  97.3782 262.4215 0007288 137.9839 222.1972 15.49096811146711
Epoch: 2026-06-25T04:59Z
TLE epoch observation values (Epoch: 2026-06-25T04:59:01.057Z)
Latitude
-0.00005°
Longitude
-85.68672°
Altitude
426.17 km
Speed
7.654 km/s
True Right ascension
17h 29m 41s
True Declination
0° 00' 00"
Sunlit
Object was in full shadow at epoch
Visualization orbit readout
Latitude
Unknown
Longitude
Unknown
Altitude
Unknown
Speed
Unknown
Apparent Right ascension
Unknown
Apparent Declination
Unknown
Sunlit
N/A
Visualization observer readout
Local Sidereal Time
23:11:51
Azimuth
Unknown
Elevation
Unknown
Doppler factor
Unknown
Orbital elements
Apogee altitude
421.245 km
Perigee altitude
411.341 km
Semi-major axis
6,794.43 km
Eccentricity
0.00073
Inclination
97.3782°
RAAN
262.4215°
Arg. of periapsis
137.9839°
True anomaly
222.14114°
Mean anomaly
222.1972°
Eccentric anomaly
222.16917°
Mean motion
3.87537 °/min
Orbital period
92.89 mins
BSTAR
0.00054917
Loading maneuver chart data...
Computing Atmospheric mass density...
Loading historical data...
Loading historical data...
Loading historical data...
Loading historical data...
Loading historical data...
Loading historical data...
Loading historical data...

Documentation

Showing up to 5 results
|